Terminal Aerodrome Forecast
Issued by NWS Miami, FL

Home | Current Version | Previous Version | Text Only | Print | Product List | Glossary On
Versions: 1 2 3 4 5 6 7 8 9 10 11 12 13 14 15 16 17 18 19 20 21 22 23
000
FTUS42 KMFL 011737
TAFFLL
TAF
KFLL 011737Z 0118/0218 12016G22KT P6SM SCT030 BKN250
     FM020000 10011KT P6SM SCT050 SCT250
     FM021400 13013KT P6SM SCT025 BKN050=

USA.gov is the U.S. government's official web portal to all federal, state and local government web resources and services.